SGSAT (42703 NORAD) Tracking and Keplerian Element Data

This shows tracking and keplerian element data for the satellite.

Feedback or suggestion? Click here.




ElementValue
Catalog42703
NameSGSAT
Epoch Orbit5566
Epoch Day126.44191986
Epoch Year2018
RAAN185.5549
Inclination51.618
Eccentricity0.0005134
Argument of Perigee302.2194
Mean Anonmoly57.7887
Mean Motion16.39284937
Decay Rate0.17722778
L11 42703U 98067LL 18126.44191986 .17722778 12425-4 13973-2 0 9990
L22 42703 51.6180 185.5549 0005134 302.2194 57.7887 16.39284937 55666



Live tracking and technical data element details for SGSAT (NORAD 42703). SGSAT can be tracked NOW for your location showing map with azimuth and elevation plus other details from your city location.







IsCatalogInMostPopularTable: catalog: 42703, numindb: 690
Update: records affected: 1



GetName: 42703 SGSAT

Hit Count: updated at: Wed, 18 Jun 2025 05:37:04 GMT